RYR7PM EGSS-ESGG

Flight info

Callsign RYR7PM
Flight time 1h 25m
Altitude 39000
Route CLN5S CLN DCT EFMIH M604 GIVPO DCT LARGA DCT SOPTO P144 GOLUM N866 AAL N607 MAKUR MAKUR4S
Aircraft B738/M-SDE2E3FGHIRWXY/LB1

Departure

Time 2026-05-04 07:38
Airport London Stansted Airport (EGSS)

Arrival

Time 2026-05-04 09:03
Airport Göteborg Landvetter Airport (ESGG)
Time Latitude Longitude Altitude Speed Heading
2026-05-04 07:10 51.88949 0.25505 348 ft 0 kts 223°
2026-05-04 07:26 51.88973 0.25591 357 ft 0 kts 313°
2026-05-04 07:29 51.88975 0.25587 355 ft 2 kts 313°
2026-05-04 07:29 51.88993 0.25557 343 ft 6 kts 313°
2026-05-04 07:30 51.89040 0.25477 353 ft 13 kts 313°
2026-05-04 07:30 51.89112 0.25350 352 ft 17 kts 312°
2026-05-04 07:30 51.89113 0.25186 348 ft 17 kts 224°
2026-05-04 07:30 51.89025 0.25050 355 ft 18 kts 223°
2026-05-04 07:31 51.88920 0.24891 348 ft 23 kts 223°
2026-05-04 07:31 51.88788 0.24694 353 ft 28 kts 223°
2026-05-04 07:33 51.87795 0.23206 348 ft 17 kts 223°
2026-05-04 07:33 51.87727 0.23083 353 ft 14 kts 249°
2026-05-04 07:33 51.87755 0.22990 348 ft 7 kts 311°
2026-05-04 07:33 51.87787 0.22936 351 ft 7 kts 313°
2026-05-04 07:34 51.87818 0.22883 350 ft 6 kts 313°
2026-05-04 07:34 51.87848 0.22831 347 ft 7 kts 313°
2026-05-04 07:34 51.87852 0.22826 347 ft 0 kts 313°
2026-05-04 07:34 51.87852 0.22825 347 ft 0 kts 313°
2026-05-04 07:35 51.87862 0.22808 346 ft 5 kts 313°
2026-05-04 07:35 51.87914 0.22718 338 ft 14 kts 313°
2026-05-04 07:35 51.87975 0.22699 340 ft 12 kts 26°
2026-05-04 07:35 51.87997 0.22725 335 ft 0 kts 42°
2026-05-04 07:38 51.91566 0.28492 2879 ft 203 kts 66°
2026-05-04 07:38 51.91777 0.29992 3304 ft 209 kts 89°
2026-05-04 07:38 51.91466 0.32348 3863 ft 222 kts 113°
2026-05-04 07:38 51.90816 0.34586 4489 ft 233 kts 116°
2026-05-04 07:39 51.90079 0.37034 5108 ft 250 kts 116°
2026-05-04 07:39 51.89315 0.39635 5716 ft 259 kts 116°
2026-05-04 07:39 51.88528 0.42291 6326 ft 264 kts 116°
2026-05-04 07:39 51.87732 0.44973 6872 ft 263 kts 116°
2026-05-04 07:40 51.86949 0.47622 7449 ft 265 kts 117°
2026-05-04 07:40 51.86153 0.50324 8025 ft 266 kts 117°
2026-05-04 07:40 51.85346 0.53064 8609 ft 275 kts 117°
2026-05-04 07:40 51.84505 0.55923 9179 ft 285 kts 117°
2026-05-04 07:41 51.83652 0.58863 9737 ft 292 kts 112°
2026-05-04 07:41 51.83351 0.62123 10250 ft 295 kts 89°
2026-05-04 07:41 51.83391 0.65446 10770 ft 297 kts 91°
2026-05-04 07:41 51.83337 0.68784 11281 ft 299 kts 94°
2026-05-04 07:42 51.83234 0.72160 11826 ft 310 kts 93°
2026-05-04 07:42 51.83296 0.75711 12383 ft 322 kts 87°
2026-05-04 07:42 51.83469 0.79394 12952 ft 333 kts 86°
2026-05-04 07:42 51.83655 0.83191 13528 ft 343 kts 87°
2026-05-04 07:43 51.83824 0.87096 14067 ft 353 kts 87°
2026-05-04 07:43 51.83982 0.91076 14571 ft 356 kts 88°
2026-05-04 07:43 51.84135 0.95081 15084 ft 357 kts 88°
2026-05-04 07:43 51.84282 0.99039 15594 ft 358 kts 88°
2026-05-04 07:44 51.84430 1.03068 16123 ft 359 kts 88°
2026-05-04 07:44 51.84575 1.07114 16664 ft 361 kts 88°
2026-05-04 07:44 51.84832 1.11154 17186 ft 365 kts 77°
2026-05-04 07:44 51.85886 1.14899 17757 ft 371 kts 55°
2026-05-04 07:45 51.87723 1.17883 18329 ft 379 kts 34°
2026-05-04 07:45 51.89932 1.20242 18865 ft 384 kts 32°
2026-05-04 07:45 51.92209 1.22538 19363 ft 386 kts 31°
2026-05-04 07:45 51.94512 1.24830 19885 ft 389 kts 31°
2026-05-04 07:46 51.96819 1.27136 20406 ft 390 kts 31°
2026-05-04 07:46 51.99131 1.29471 20940 ft 392 kts 31°
2026-05-04 07:46 52.01449 1.31832 21478 ft 394 kts 31°
2026-05-04 07:46 52.03742 1.34184 22030 ft 396 kts 31°
2026-05-04 07:47 52.06088 1.36601 22605 ft 400 kts 31°
2026-05-04 07:47 52.08453 1.39045 23188 ft 404 kts 31°
2026-05-04 07:47 52.10838 1.41516 23743 ft 408 kts 31°
2026-05-04 07:49 52.28191 1.59595 26664 ft 441 kts 31°
2026-05-04 07:49 52.30792 1.62320 27056 ft 445 kts 31°
2026-05-04 07:49 52.33409 1.65065 27451 ft 449 kts 31°
2026-05-04 07:50 52.36052 1.67841 27850 ft 452 kts 31°
2026-05-04 07:50 52.38712 1.70639 28252 ft 454 kts 31°
2026-05-04 07:50 52.41340 1.73409 28658 ft 456 kts 31°
2026-05-04 07:50 52.44012 1.76228 29075 ft 457 kts 31°
2026-05-04 07:51 52.46690 1.79058 29497 ft 458 kts 31°
2026-05-04 07:51 52.49366 1.81891 29916 ft 458 kts 31°
2026-05-04 07:51 52.52049 1.84733 30295 ft 458 kts 31°
2026-05-04 07:51 52.54723 1.87571 30678 ft 456 kts 31°
2026-05-04 07:52 52.57354 1.90434 31039 ft 450 kts 34°
2026-05-04 07:52 52.59819 1.93531 31408 ft 443 kts 37°
2026-05-04 07:52 52.62202 1.96698 31784 ft 438 kts 38°
2026-05-04 07:52 52.64546 1.99876 32171 ft 435 kts 38°
2026-05-04 07:53 52.66880 2.03048 32573 ft 435 kts 38°
2026-05-04 07:54 52.83210 2.24999 35230 ft 429 kts 38°
2026-05-04 07:55 52.85535 2.28128 35404 ft 433 kts 38°
2026-05-04 07:55 52.87882 2.31288 35546 ft 437 kts 38°
2026-05-04 07:55 52.90253 2.34488 35691 ft 441 kts 38°
2026-05-04 07:55 52.92643 2.37718 35841 ft 444 kts 38°
2026-05-04 07:56 52.95015 2.40929 35974 ft 448 kts 38°
2026-05-04 07:56 52.97434 2.44209 36126 ft 450 kts 38°
2026-05-04 07:56 52.99867 2.47512 36254 ft 452 kts 38°
2026-05-04 07:56 53.02301 2.50823 36397 ft 453 kts 38°
2026-05-04 07:57 53.04739 2.54143 36536 ft 453 kts 38°
2026-05-04 07:57 53.07169 2.57458 36667 ft 450 kts 38°
2026-05-04 07:57 53.09453 2.60578 36826 ft 445 kts 38°
2026-05-04 07:57 53.11827 2.63826 36992 ft 441 kts 38°
2026-05-04 07:58 53.14199 2.67076 37178 ft 440 kts 38°
2026-05-04 07:58 53.16562 2.70318 37361 ft 440 kts 38°
2026-05-04 07:58 53.18922 2.73561 37542 ft 439 kts 38°
2026-05-04 07:58 53.21276 2.76799 37723 ft 438 kts 38°
2026-05-04 07:59 53.23632 2.80045 37913 ft 438 kts 38°
2026-05-04 07:59 53.25951 2.83245 38103 ft 437 kts 38°
2026-05-04 07:59 53.28342 2.86401 38281 ft 437 kts 33°
2026-05-04 07:59 53.30949 2.88962 38464 ft 435 kts 24°
2026-05-04 08:00 53.33679 2.91128 38676 ft 434 kts 23°
2026-05-04 08:00 53.36426 2.93228 38827 ft 434 kts 22°
2026-05-04 08:00 53.39182 2.95320 38969 ft 435 kts 23°
2026-05-04 08:02 53.58826 3.10675 39017 ft 459 kts 24°
2026-05-04 08:02 53.64618 3.15277 39022 ft 466 kts 24°
2026-05-04 08:03 53.70523 3.19981 39024 ft 472 kts 24°
2026-05-04 08:03 53.76487 3.24746 39024 ft 475 kts 24°
2026-05-04 08:04 53.82483 3.29552 39023 ft 478 kts 24°
2026-05-04 08:04 53.88499 3.34389 39017 ft 478 kts 24°
2026-05-04 08:05 53.94469 3.39205 39018 ft 476 kts 24°
2026-05-04 08:05 54.00451 3.44045 39016 ft 475 kts 24°
2026-05-04 08:06 54.06398 3.48874 39019 ft 473 kts 24°
2026-05-04 08:06 54.12326 3.53700 39021 ft 471 kts 24°
2026-05-04 08:08 54.35778 3.72949 39030 ft 466 kts 24°
2026-05-04 08:11 54.62140 3.94882 39034 ft 470 kts 24°
2026-05-04 08:11 54.70990 4.02317 39031 ft 472 kts 24°
2026-05-04 08:12 54.76900 4.07303 39032 ft 473 kts 24°
2026-05-04 08:12 54.82746 4.12398 39014 ft 475 kts 30°
2026-05-04 08:13 54.87740 4.19887 39020 ft 478 kts 50°
2026-05-04 08:13 54.91727 4.29142 39024 ft 478 kts 53°
2026-05-04 08:14 54.95644 4.38498 39023 ft 478 kts 53°
2026-05-04 08:16 55.11461 4.75828 39020 ft 478 kts 52°
2026-05-04 08:16 55.15406 4.85193 39012 ft 478 kts 52°
2026-05-04 08:17 55.19348 4.94589 39026 ft 478 kts 52°
2026-05-04 08:17 55.23250 5.03927 39024 ft 478 kts 53°
2026-05-04 08:19 55.38889 5.41710 39017 ft 479 kts 53°
2026-05-04 08:20 55.42796 5.51238 39016 ft 479 kts 53°
2026-05-04 08:20 55.46669 5.60722 39023 ft 480 kts 53°
2026-05-04 08:21 55.50564 5.70298 39011 ft 480 kts 53°
2026-05-04 08:21 55.54456 5.79902 39019 ft 481 kts 53°
2026-05-04 08:22 55.58344 5.89535 39018 ft 482 kts 53°
2026-05-04 08:24 55.73847 6.28323 39006 ft 483 kts 53°
2026-05-04 08:24 55.77718 6.38105 39001 ft 484 kts 53°
2026-05-04 08:25 55.81554 6.47854 39002 ft 484 kts 54°
2026-05-04 08:25 55.85379 6.57696 38995 ft 484 kts 54°
2026-05-04 08:27 55.99978 6.95660 38989 ft 484 kts 54°
2026-05-04 08:28 56.03776 7.05625 38987 ft 485 kts 54°
2026-05-04 08:28 56.07569 7.15620 38984 ft 485 kts 54°
2026-05-04 08:29 56.11354 7.25633 38981 ft 485 kts 54°
2026-05-04 08:31 56.26412 7.65887 38970 ft 487 kts 55°
2026-05-04 08:33 56.41385 8.06586 38956 ft 488 kts 55°
2026-05-04 08:35 56.56284 8.47770 38934 ft 490 kts 56°
2026-05-04 08:35 56.60002 8.58160 38902 ft 490 kts 56°
2026-05-04 08:37 56.70990 8.89126 37755 ft 479 kts 56°
2026-05-04 08:37 56.72790 8.94236 37233 ft 479 kts 56°
2026-05-04 08:37 56.74588 8.99353 36722 ft 480 kts 56°
2026-05-04 08:38 56.76388 9.04481 36225 ft 480 kts 56°
2026-05-04 08:38 56.78188 9.09624 35725 ft 481 kts 56°
2026-05-04 08:38 56.79982 9.14761 35243 ft 481 kts 56°
2026-05-04 08:40 56.92450 9.50770 31715 ft 477 kts 56°
2026-05-04 08:40 56.94213 9.55908 31216 ft 475 kts 56°
2026-05-04 08:40 56.95969 9.61034 30722 ft 474 kts 56°
2026-05-04 08:41 56.97711 9.66131 30207 ft 470 kts 56°
2026-05-04 08:41 56.99440 9.71202 29734 ft 464 kts 56°
2026-05-04 08:41 57.01137 9.76189 29248 ft 458 kts 56°
2026-05-04 08:41 57.02812 9.81121 28810 ft 451 kts 56°
2026-05-04 08:42 57.04462 9.85989 28368 ft 445 kts 56°
2026-05-04 08:42 57.06090 9.90802 27949 ft 439 kts 56°
2026-05-04 08:42 57.07676 9.95500 27527 ft 434 kts 56°
2026-05-04 08:42 57.09258 10.00192 27111 ft 430 kts 56°
2026-05-04 08:43 57.10827 10.04858 26702 ft 425 kts 56°
2026-05-04 08:43 57.12378 10.09476 26297 ft 421 kts 56°
2026-05-04 08:43 57.13909 10.14045 25896 ft 417 kts 56°
2026-05-04 08:43 57.15425 10.18577 25502 ft 414 kts 56°
2026-05-04 08:44 57.16930 10.23086 25106 ft 411 kts 56°
2026-05-04 08:44 57.18422 10.27564 24714 ft 408 kts 56°
2026-05-04 08:46 57.28594 10.58322 21847 ft 393 kts 57°
2026-05-04 08:46 57.30006 10.62626 21463 ft 390 kts 57°
2026-05-04 08:46 57.31411 10.66912 21083 ft 387 kts 57°
2026-05-04 08:46 57.32799 10.71158 20704 ft 385 kts 57°
2026-05-04 08:47 57.34165 10.75341 20335 ft 382 kts 57°
2026-05-04 08:47 57.35537 10.79550 19965 ft 380 kts 57°
2026-05-04 08:47 57.36901 10.83741 19597 ft 378 kts 57°
2026-05-04 08:47 57.38257 10.87916 19233 ft 377 kts 57°
2026-05-04 08:48 57.39603 10.92069 18848 ft 376 kts 57°
2026-05-04 08:48 57.40952 10.96234 18470 ft 375 kts 57°
2026-05-04 08:48 57.42287 11.00368 18094 ft 373 kts 57°
2026-05-04 08:48 57.43621 11.04501 17678 ft 372 kts 57°
2026-05-04 08:49 57.44942 11.08605 17296 ft 369 kts 57°
2026-05-04 08:50 57.52660 11.32723 15147 ft 356 kts 57°
2026-05-04 08:50 57.53919 11.36681 14796 ft 354 kts 57°
2026-05-04 08:51 57.55171 11.40622 14448 ft 352 kts 57°
2026-05-04 08:51 57.56415 11.44544 14096 ft 350 kts 57°
2026-05-04 08:51 57.57648 11.48441 13743 ft 349 kts 57°
2026-05-04 08:51 57.58877 11.52329 13359 ft 348 kts 57°
2026-05-04 08:52 57.60085 11.56157 12997 ft 345 kts 57°
2026-05-04 08:52 57.61300 11.60015 12637 ft 343 kts 57°
2026-05-04 08:52 57.62505 11.63847 12284 ft 340 kts 57°
2026-05-04 08:52 57.63697 11.67641 11950 ft 338 kts 57°
2026-05-04 08:53 57.64862 11.71360 11862 ft 326 kts 57°
2026-05-04 08:54 57.72457 11.95730 10313 ft 300 kts 57°
2026-05-04 08:55 57.73356 11.98633 10103 ft 298 kts 57°
2026-05-04 08:55 57.74389 12.01971 9850 ft 295 kts 57°
2026-05-04 08:55 57.75400 12.05243 9611 ft 293 kts 57°
2026-05-04 08:55 57.76418 12.08543 9352 ft 291 kts 57°
2026-05-04 08:57 57.85483 12.27387 6473 ft 279 kts 36°
2026-05-04 09:01 57.74109 12.35106 1953 ft 140 kts 211°
2026-05-04 09:01 57.73256 12.34327 1783 ft 139 kts 210°
2026-05-04 09:01 57.72392 12.33540 1600 ft 138 kts 209°
2026-05-04 09:01 57.71543 12.32768 1409 ft 132 kts 211°
2026-05-04 09:02 57.70729 12.32017 1237 ft 132 kts 210°
2026-05-04 09:02 57.69866 12.31234 1081 ft 140 kts 208°
2026-05-04 09:02 57.68988 12.30445 850 ft 139 kts 208°
2026-05-04 09:02 57.68146 12.29685 656 ft 133 kts 209°
2026-05-04 09:03 57.67338 12.28940 513 ft 125 kts 208°
2026-05-04 09:03 57.66673 12.28330 505 ft 85 kts 206°
2026-05-04 09:03 57.66232 12.27924 488 ft 45 kts 206°
2026-05-04 09:03 57.66139 12.27966 492 ft 12 kts 119°
2026-05-04 09:04 57.66103 12.28107 499 ft 12 kts 103°
2026-05-04 09:04 57.66157 12.28212 500 ft 12 kts 27°
2026-05-04 09:04 57.66226 12.28279 501 ft 11 kts 25°
2026-05-04 09:04 57.66294 12.28339 501 ft 11 kts 26°
2026-05-04 09:05 57.66360 12.28399 502 ft 10 kts 26°
2026-05-04 09:05 57.66424 12.28457 503 ft 10 kts 26°
2026-05-04 09:05 57.66489 12.28515 503 ft 11 kts 26°
2026-05-04 09:05 57.66561 12.28581 504 ft 12 kts 26°
2026-05-04 09:06 57.66647 12.28658 505 ft 15 kts 26°
2026-05-04 09:07 57.66729 12.29268 507 ft 0 kts 114°